GW6245 Weather Reports


Display with metric or nautical units.
time (UTC)temp
F
wind
direction
speed
MPH
gust
MPH
rain 1hr
in
rain 24hr
in
rain mn
in
humidity
%
barometer
mb
20260510225137 81 105 0.0 0.0 0.00 0.00 0.00 40 998.7
20260510224633 81 104 0.0 0.0 0.00 0.00 0.00 38 998.8
20260510224129 81 153 2.0 2.0 0.00 0.00 0.00 37 998.8
20260510223627 82 97 0.0 0.0 0.00 0.00 0.00 39 998.7
20260510223124 82 213 3.0 3.0 0.00 0.00 0.00 36 998.5
20260510222621 85 82 1.0 1.0 0.00 0.00 0.00 35 998.4
20260510222118 84 116 1.0 1.0 0.00 0.00 0.00 35 998.4
20260510221619 85 119 3.0 3.0 0.00 0.00 0.00 33 998.5
20260510221115 84 100 0.0 0.0 0.00 0.00 0.00 36 998.5
20260510220613 84 112 0.0 0.0 0.00 0.00 0.00 36 998.7
20260510220108 85 122 0.0 1.0 0.00 0.00 0.00 35 998.7
20260510215605 84 174 1.0 2.0 0.00 0.00 0.00 32 998.6
20260510215104 85 100 0.0 0.0 0.00 0.00 0.00 31 998.6
20260510214600 85 97 0.0 0.0 0.00 0.00 0.00 32 998.5
20260510214056 85 98 0.0 1.0 0.00 0.00 0.00 34 998.6
20260510213553 85 87 1.0 2.0 0.00 0.00 0.00 34 998.6
20260510213049 86 113 2.0 3.0 0.00 0.00 0.00 31 998.3
20260510212546 85 119 4.0 7.0 0.00 0.00 0.00 34 998.3
20260510212044 85 80 0.0 1.0 0.00 0.00 0.00 34 998.4
20260510211540 84 100 1.0 1.0 0.00 0.00 0.00 32 998.3
20260510211040 85 111 2.0 3.0 0.00 0.00 0.00 32 998.3
20260510210537 84 140 2.0 3.0 0.00 0.00 0.00 33 998.4
20260510210032 85 91 1.0 1.0 0.00 0.00 0.00 33 998.4
20260510205532 85 113 2.0 3.0 0.00 0.00 0.00 33 998.5
20260510205028 85 66 1.0 2.0 0.00 0.00 0.00 34 998.5
20260510204524 85 59 3.0 5.0 0.00 0.00 0.00 32 998.6
20260510204021 86 112 1.0 1.0 0.00 0.00 0.00 33 998.5
20260510203518 84 159 4.0 6.0 0.00 0.00 0.00 33 998.5
20260510203015 83 110 0.0 1.0 0.00 0.00 0.00 34 998.7
20260510202513 84 142 3.0 3.0 0.00 0.00 0.00 31 998.5
20260510202010 86 148 2.0 6.0 0.00 0.00 0.00 32 998.7
20260510201508 85 94 1.0 2.0 0.00 0.00 0.00 33 998.5
20260510201004 83 164 1.0 2.0 0.00 0.00 0.00 32 998.7
20260510200459 85 110 1.0 2.0 0.00 0.00 0.00 34 998.6
20260510195957 86 94 0.0 0.0 0.00 0.00 0.00 31 998.9
20260510195455 84 102 1.0 1.0 0.00 0.00 0.00 33 999.0
20260510194950 84 127 2.0 2.0 0.00 0.00 0.00 33 998.9
20260510194447 83 108 1.0 1.0 0.00 0.00 0.00 36 998.9
20260510193942 83 238 4.0 7.0 0.00 0.00 0.00 33 998.6
20260510193438 83 128 2.0 2.0 0.00 0.00 0.00 33 998.9
20260510192933 83 220 3.0 3.0 0.00 0.00 0.00 33 998.9
20260510192429 84 136 5.0 6.0 0.00 0.00 0.00 32 999.0
20260510191925 85 111 1.0 1.0 0.00 0.00 0.00 35 999.0
20260510191421 83 154 2.0 2.0 0.00 0.00 0.00 33 998.9
20260510190918 87 101 2.0 2.0 0.00 0.00 0.00 34 998.9
20260510190416 86 154 1.0 2.0 0.00 0.00 0.00 32 999.1
20260510185912 85 86 2.0 2.0 0.00 0.00 0.00 33 999.0
20260510185410 85 32 1.0 1.0 0.00 0.00 0.00 34 999.3
20260510184907 84 106 1.0 1.0 0.00 0.00 0.00 35 999.1
20260510184404 84 107 3.0 3.0 0.00 0.00 0.00 36 999.1
20260510183903 83 150 3.0 3.0 0.00 0.00 0.00 35 999.2
20260510183400 84 124 3.0 3.0 0.00 0.00 0.00 36 999.2
20260510182855 82 104 1.0 2.0 0.00 0.00 0.00 35 999.3
20260510182352 83 172 3.0 5.0 0.00 0.00 0.00 33 999.2
20260510181848 82 104 1.0 1.0 0.00 0.00 0.00 34 999.2
20260510181345 80 93 1.0 1.0 0.00 0.00 0.00 35 999.3
20260510180841 81 101 2.0 2.0 0.00 0.00 0.00 36 999.4
20260510180338 84 97 2.0 3.0 0.00 0.00 0.00 35 999.6
20260510175835 83 119 3.0 3.0 0.00 0.00 0.00 34 999.4
20260510175331 84 91 0.0 0.0 0.00 0.00 0.00 33 999.5
20260510174827 82 86 1.0 1.0 0.00 0.00 0.00 34 999.7
20260510174325 83 145 3.0 5.0 0.00 0.00 0.00 34 999.6
20260510173821 83 128 1.0 1.0 0.00 0.00 0.00 33 999.6
20260510173317 81 86 3.0 3.0 0.00 0.00 0.00 35 999.6
20260510172813 81 72 3.0 3.0 0.00 0.00 0.00 35 999.7
20260510172309 83 101 1.0 1.0 0.00 0.00 0.00 36 999.8
20260510171807 84 334 3.0 5.0 0.00 0.00 0.00 34 999.8
20260510171304 81 74 1.0 2.0 0.00 0.00 0.00 37 999.8
20260510170801 81 81 7.0 10.0 0.00 0.00 0.00 38 999.7
20260510170257 82 111 5.0 6.0 0.00 0.00 0.00 40 999.9
20260510165752 80 78 3.0 5.0 0.00 0.00 0.00 36 1000.0
20260510165248 84 105 9.0 13.0 0.00 0.00 0.00 35 1000.1
20260510164746 85 83 3.0 3.0 0.00 0.00 0.00 35 1000.0
20260510164244 82 104 1.0 1.0 0.00 0.00 0.00 36 999.9
20260510163743 84 107 5.0 6.0 0.00 0.00 0.00 33 1000.0
20260510163239 81 89 0.0 0.0 0.00 0.00 0.00 38 999.9
20260510162739 80 78 2.0 2.0 0.00 0.00 0.00 38 999.8
20260510162237 82 108 6.0 7.0 0.00 0.00 0.00 35 1000.1
20260510161732 82 77 1.0 1.0 0.00 0.00 0.00 35 1000.0
20260510161228 80 95 2.0 2.0 0.00 0.00 0.00 33 1000.2
20260510160726 82 89 0.0 1.0 0.00 0.00 0.00 38 1000.2
20260510160226 83 101 2.0 2.0 0.00 0.00 0.00 39 1000.1
20260510155723 83 87 1.0 1.0 0.00 0.00 0.00 38 1000.1
20260510155218 83 7 7.0 11.0 0.00 0.00 0.00 36 1000.1
20260510154714 83 288 8.0 11.0 0.00 0.00 0.00 37 1000.2
20260510154211 84 93 0.0 1.0 0.00 0.00 0.00 41 1000.0
20260510153705 83 84 1.0 1.0 0.00 0.00 0.00 43 1000.0
20260510153202 82 72 3.0 3.0 0.00 0.00 0.00 41 999.9
20260510152659 82 86 3.0 3.0 0.00 0.00 0.00 43 1000.2
20260510152155 81 80 2.0 3.0 0.00 0.00 0.00 45 1000.3
20260510151651 81 112 3.0 3.0 0.00 0.00 0.00 44 1000.3
20260510151150 81 87 1.0 2.0 0.00 0.00 0.00 45 1000.3
20260510150645 80 11 2.0 3.0 0.00 0.00 0.00 49 1000.3
20260510150141 81 89 1.0 2.0 0.00 0.00 0.00 51 1000.2
20260510145638 80 109 2.0 2.0 0.00 0.00 0.00 52 1000.0
20260510145134 79 82 1.0 2.0 0.00 0.00 0.00 51 1000.2
20260510144630 78 120 0.0 1.0 0.00 0.00 0.00 50 1000.3
20260510144126 79 341 3.0 3.0 0.00 0.00 0.00 50 1000.3
20260510143622 79 126 1.0 2.0 0.00 0.00 0.00 53 1000.0
20260510143119 78 102 1.0 1.0 0.00 0.00 0.00 55 1000.1
20260510142615 78 100 0.0 1.0 0.00 0.00 0.00 56 1000.2
20260510142112 78 86 1.0 1.0 0.00 0.00 0.00 54 1000.2
20260510141609 79 106 1.0 1.0 0.00 0.00 0.00 55 999.9
20260510141107 78 65 2.0 2.0 0.00 0.00 0.00 57 1000.0
20260510140603 78 96 2.0 2.0 0.00 0.00 0.00 55 1000.1
20260510135558 78 36 1.0 2.0 0.00 0.00 0.00 58 999.9
20260510135055 78 87 0.0 1.0 0.00 0.00 0.00 64 999.9
20260510134552 76 98 0.0 1.0 0.00 0.00 0.00 64 1000.0
20260510134048 76 91 0.0 1.0 0.00 0.00 0.00 65 1000.1
20260510133544 76 115 1.0 2.0 0.00 0.00 0.00 65 999.9
20260510133040 75 114 3.0 5.0 0.00 0.00 0.00 66 1000.0
20260510132537 75 79 0.0 1.0 0.00 0.00 0.00 68 1000.0
20260510132034 75 102 1.0 1.0 0.00 0.00 0.00 69 999.9
20260510131532 75 122 0.0 0.0 0.00 0.00 0.00 69 1000.0
20260510131029 73 124 0.0 1.0 0.00 0.00 0.00 78 999.8
20260510130525 71 124 0.0 0.0 0.00 0.00 0.00 80 999.9
20260510130023 72 124 0.0 0.0 0.00 0.00 0.00 80 999.9
20260510125519 71 124 0.0 0.0 0.00 0.00 0.00 84 1000.0
20260510125015 70 123 1.0 1.0 0.00 0.00 0.00 83 999.7
20260510124512 70 124 0.0 0.0 0.00 0.00 0.00 84 999.6
20260510124009 68 123 0.0 0.0 0.00 0.00 0.00 89 999.7
20260510123504 66 124 1.0 1.0 0.00 0.00 0.00 92 999.7
20260510123000 66 121 1.0 1.0 0.00 0.00 0.00 92 999.3
20260510122456 66 112 0.0 0.0 0.00 0.00 0.00 92 999.3
20260510121952 66 111 0.0 1.0 0.00 0.00 0.00 92 999.5
20260510121450 64 110 0.0 0.0 0.00 0.00 0.00 94 999.4
20260510120947 65 110 0.0 0.0 0.00 0.00 0.00 93 999.0
20260510120444 64 111 0.0 1.0 0.00 0.00 0.00 93 998.9
20260510115940 65 108 0.0 1.0 0.00 0.00 0.00 91 999.0
20260510115437 66 115 1.0 1.0 0.00 0.00 0.00 88 999.0
20260510114933 64 102 0.0 0.0 0.00 0.00 0.00 89 998.7
20260510114430 63 102 0.0 0.0 0.00 0.00 0.00 93 999.1
20260510113925 61 102 0.0 0.0 0.00 0.00 0.00 97 998.9
20260510113421 61 102 0.0 0.0 0.00 0.00 0.00 99 998.5
20260510112919 59 102 0.0 0.0 0.00 0.00 0.00 99 998.7
20260510112416 58 102 0.0 0.0 0.00 0.00 0.00 99 998.6
20260510111912 58 103 0.0 0.0 0.00 0.00 0.00 99 998.7
20260510111408 59 102 0.0 0.0 0.00 0.00 0.00 99 998.8
20260510110904 58 102 0.0 0.0 0.00 0.00 0.00 99 998.5
20260510110401 58 103 0.0 0.0 0.00 0.00 0.00 99 998.3
20260510105857 59 103 0.0 0.0 0.00 0.00 0.00 99 998.4
20260510105356 59 102 0.0 0.0 0.00 0.00 0.00 99 998.3
20260510104853 59 102 0.0 0.0 0.00 0.00 0.00 99 998.5
20260510104350 57 102 0.0 0.0 0.00 0.00 0.00 99 998.2
20260510103846 57 102 0.0 0.0 0.00 0.00 0.00 99 998.0
20260510103343 57 102 0.0 0.0 0.00 0.00 0.00 99 998.0
20260510102839 57 102 0.0 0.0 0.00 0.00 0.00 99 997.9
20260510102335 56 102 0.0 0.0 0.00 0.00 0.00 99 998.1
20260510101832 56 102 0.0 0.0 0.00 0.00 0.00 99 997.7
20260510101331 56 102 0.0 0.0 0.00 0.00 0.00 99 997.8
20260510100826 56 101 0.0 0.0 0.00 0.00 0.00 99 997.7
20260510100324 57 100 0.0 0.0 0.00 0.00 0.00 99 997.7
20260510095820 57 99 0.0 0.0 0.00 0.00 0.00 99 997.5
20260510095315 57 99 0.0 0.0 0.00 0.00 0.00 99 997.5
20260510094814 58 98 0.0 0.0 0.00 0.00 0.00 99 997.4
20260510094310 59 97 0.0 0.0 0.00 0.00 0.00 99 997.3
20260510093806 59 97 0.0 0.0 0.00 0.00 0.00 99 997.1
20260510093303 58 98 0.0 0.0 0.00 0.00 0.00 99 997.2
20260510092759 58 98 0.0 0.0 0.00 0.00 0.00 99 997.0
20260510092255 58 98 0.0 0.0 0.00 0.00 0.00 99 997.1
20260510091750 58 98 0.0 0.0 0.00 0.00 0.00 99 997.0
20260510091248 58 98 0.0 0.0 0.00 0.00 0.00 99 997.1
20260510090745 58 98 0.0 0.0 0.00 0.00 0.00 99 997.0
20260510090242 59 98 0.0 0.0 0.00 0.00 0.00 98 996.9
20260510085737 59 98 0.0 0.0 0.00 0.00 0.00 98 997.0
20260510085231 59 98 0.0 0.0 0.00 0.00 0.00 98 996.9
20260510084728 60 98 0.0 0.0 0.00 0.00 0.00 97 996.8
20260510084225 60 98 0.0 0.0 0.00 0.00 0.00 98 996.7
20260510083721 60 98 0.0 0.0 0.00 0.00 0.00 99 996.7
20260510083219 59 98 0.0 0.0 0.00 0.00 0.00 99 996.5
20260510082714 59 98 0.0 0.0 0.00 0.00 0.00 99 996.4
20260510082211 60 98 0.0 0.0 0.00 0.00 0.00 98 996.3
20260510081710 60 98 0.0 0.0 0.00 0.00 0.00 99 996.5
20260510081207 60 98 0.0 0.0 0.00 0.00 0.00 99 996.4
20260510080706 60 98 0.0 0.0 0.00 0.00 0.00 99 996.5
20260510080203 60 98 0.0 0.0 0.00 0.00 0.00 99 996.6
20260510075700 60 98 0.0 0.0 0.00 0.00 0.00 99 996.4
20260510075158 59 98 0.0 0.0 0.00 0.00 0.00 99 996.5
20260510074655 59 98 0.0 0.0 0.00 0.00 0.00 99 996.4
20260510074150 60 98 0.0 0.0 0.00 0.00 0.00 99 996.1
20260510073647 60 98 0.0 0.0 0.00 0.00 0.00 99 996.5
20260510073143 60 98 0.0 0.0 0.00 0.00 0.00 99 996.3
20260510072639 60 98 0.0 0.0 0.00 0.00 0.00 99 996.3
20260510072136 59 98 0.0 0.0 0.00 0.00 0.00 99 996.3
20260510071632 60 98 0.0 0.0 0.00 0.00 0.00 99 996.3
20260510071130 59 101 0.0 0.0 0.00 0.00 0.00 99 996.3
20260510070627 59 92 0.0 0.0 0.00 0.00 0.00 99 996.3
20260510070124 60 92 0.0 0.0 0.00 0.00 0.00 98 996.3
20260510065620 60 92 0.0 0.0 0.00 0.00 0.00 98 996.3
20260510065116 61 92 0.0 0.0 0.00 0.00 0.00 97 996.2
20260510064612 61 91 0.0 0.0 0.00 0.00 0.00 98 996.2
20260510064109 61 93 0.0 0.0 0.00 0.00 0.00 99 996.3
20260510063606 60 94 0.0 0.0 0.00 0.00 0.00 99 996.2
20260510063103 60 95 0.0 0.0 0.00 0.00 0.00 98 996.4
20260510062559 60 87 0.0 0.0 0.00 0.00 0.00 98 996.4
20260510062054 61 86 0.0 0.0 0.00 0.00 0.00 98 996.3
20260510061551 60 87 0.0 0.0 0.00 0.00 0.00 98 996.1
20260510061048 60 104 0.0 0.0 0.00 0.00 0.00 98 996.4
20260510060544 60 105 0.0 0.0 0.00 0.00 0.00 98 996.4
20260510060040 60 109 0.0 1.0 0.00 0.00 0.00 98 996.5
20260510055537 60 119 1.0 1.0 0.00 0.00 0.00 97 996.3
20260510055035 62 109 0.0 0.0 0.00 0.00 0.00 95 996.3
20260510054530 63 98 0.0 0.0 0.00 0.00 0.00 93 996.2
20260510054025 64 97 0.0 0.0 0.00 0.00 0.00 91 996.2
20260510053521 64 97 0.0 0.0 0.00 0.00 0.00 92 996.0
20260510053018 64 97 0.0 0.0 0.00 0.00 0.00 92 996.3
20260510052514 64 97 0.0 0.0 0.00 0.00 0.00 92 996.2
20260510052010 64 97 0.0 0.0 0.00 0.00 0.00 92 996.3
20260510051505 64 97 0.0 0.0 0.00 0.00 0.00 93 996.3
20260510051002 64 97 0.0 0.0 0.00 0.00 0.00 94 996.5
20260510050459 63 97 0.0 0.0 0.00 0.00 0.00 95 996.2
20260510045956 63 97 0.0 0.0 0.00 0.00 0.00 96 996.5
20260510045454 62 97 0.0 0.0 0.00 0.00 0.00 96 996.4
20260510044950 62 97 0.0 0.0 0.00 0.00 0.00 96 996.5
20260510044447 62 98 0.0 0.0 0.00 0.00 0.00 96 996.3
20260510043944 62 98 0.0 0.0 0.00 0.00 0.00 95 996.6
20260510043439 63 97 0.0 0.0 0.00 0.00 0.00 94 996.5
20260510042938 63 97 0.0 0.0 0.00 0.00 0.00 94 996.6
20260510042434 62 97 0.0 0.0 0.00 0.00 0.00 94 996.6
20260510041929 63 96 0.0 0.0 0.00 0.00 0.00 93 996.6
20260510041427 64 96 0.0 0.0 0.00 0.00 0.00 90 996.7
20260510040924 65 96 0.0 0.0 0.00 0.00 0.00 90 996.8
20260510040421 64 104 0.0 0.0 0.00 0.00 0.00 92 996.7
20260510035917 63 104 0.0 0.0 0.00 0.07 0.07 94 996.5
20260510035414 63 105 0.0 0.0 0.00 0.07 0.07 95 996.8
20260510034913 62 105 0.0 0.0 0.00 0.07 0.07 95 996.9
20260510034412 62 111 0.0 1.0 0.00 0.07 0.07 95 996.9
20260510033908 62 98 0.0 1.0 0.00 0.07 0.07 95 996.9
20260510033404 63 92 0.0 0.0 0.00 0.07 0.07 95 996.7
20260510032901 63 91 0.0 0.0 0.00 0.07 0.07 94 996.7
20260510032358 63 91 0.0 0.0 0.00 0.07 0.07 94 996.8
20260510031853 63 91 0.0 0.0 0.00 0.07 0.07 94 996.8
20260510031349 63 91 0.0 0.0 0.00 0.07 0.07 94 996.8
20260510030849 64 90 0.0 0.0 0.00 0.07 0.07 93 996.7
20260510030345 63 88 0.0 0.0 0.00 0.07 0.07 93 996.7
20260510025843 63 87 0.0 0.0 0.00 0.07 0.07 94 996.6
20260510025340 63 119 1.0 1.0 0.00 0.07 0.07 93 996.7
20260510024837 63 117 0.0 0.0 0.00 0.07 0.07 93 996.9
20260510024334 63 126 1.0 1.0 0.00 0.07 0.07 93 996.6
20260510023830 64 115 0.0 0.0 0.00 0.07 0.07 93 996.7
20260510023326 64 113 1.0 1.0 0.00 0.07 0.07 92 996.5
20260510022824 64 112 0.0 0.0 0.00 0.07 0.07 92 996.6
20260510022323 64 112 0.0 0.0 0.00 0.07 0.07 93 996.3
20260510021822 65 113 0.0 0.0 0.00 0.07 0.07 91 996.5
20260510021321 64 112 0.0 0.0 0.00 0.07 0.07 91 996.6
20260510020816 65 123 1.0 1.0 0.00 0.07 0.07 90 996.5
20260510020311 64 115 1.0 1.0 0.00 0.07 0.07 91 996.5
20260510015808 65 110 0.0 0.0 0.00 0.07 0.07 91 996.2
20260510015306 65 130 1.0 1.0 0.00 0.07 0.07 91 996.2
20260510014759 66 103 1.0 1.0 0.00 0.07 0.07 90 995.9
20260510014256 65 101 0.0 0.0 0.00 0.07 0.07 91 996.2
20260510013752 64 102 0.0 0.0 0.00 0.07 0.07 92 995.9
20260510013248 65 102 1.0 1.0 0.00 0.07 0.07 91 996.1
20260510012749 66 102 0.0 0.0 0.00 0.07 0.07 90 995.8
20260510012243 66 105 1.0 1.0 0.00 0.07 0.07 89 995.8
20260510011743 65 96 0.0 0.0 0.00 0.07 0.07 91 995.9
20260510011239 65 96 0.0 0.0 0.00 0.07 0.07 91 995.7
20260510010736 66 96 1.0 1.0 0.00 0.07 0.07 90 995.6
20260510010232 67 96 0.0 0.0 0.00 0.07 0.07 88 995.6
20260510005729 67 90 0.0 1.0 0.00 0.07 0.07 88 995.5
20260510005226 67 107 0.0 0.0 0.00 0.07 0.07 88 995.3
20260510004724 67 115 0.0 1.0 0.00 0.07 0.07 88 995.2
20260510004222 67 137 1.0 1.0 0.00 0.07 0.07 87 995.2
20260510003719 68 138 1.0 1.0 0.00 0.07 0.07 86 994.9
20260510003215 68 170 2.0 2.0 0.00 0.07 0.07 86 994.8
20260510002714 68 182 2.0 2.0 0.00 0.07 0.07 86 994.8
20260510002212 68 158 2.0 2.0 0.00 0.07 0.07 86 994.9
20260510001708 68 157 2.0 2.0 0.00 0.07 0.07 86 995.0
20260510001207 68 163 3.0 3.0 0.00 0.07 0.07 86 994.7
20260510000708 69 119 0.0 1.0 0.00 0.07 0.07 86 994.8
20260510000205 69 135 2.0 2.0 0.00 0.07 0.07 85 994.9
20260509235701 69 123 1.0 1.0 0.00 0.07 0.07 84 994.6
20260509235158 69 118 0.0 1.0 0.00 0.07 0.07 84 994.7
20260509234654 70 116 1.0 1.0 0.00 0.07 0.07 83 994.4
20260509234151 70 120 0.0 0.0 0.00 0.07 0.07 82 994.7
20260509233649 70 124 2.0 2.0 0.00 0.07 0.07 82 994.6
20260509233146 70 154 2.0 2.0 0.00 0.07 0.07 82 994.4
20260509232642 70 126 1.0 1.0 0.00 0.07 0.07 81 994.7
20260509232139 70 153 2.0 2.0 0.00 0.07 0.07 81 994.7
20260509231636 71 152 2.0 2.0 0.00 0.07 0.07 80 994.6
20260509231134 71 117 1.0 1.0 0.00 0.07 0.07 80 994.4
20260509230631 71 127 2.0 2.0 0.00 0.07 0.07 80 994.5
20260509230127 71 131 1.0 2.0 0.00 0.07 0.07 79 994.4